www.pogodaiklimat.ru

Погода и климат >> Архив погоды >> Россия >> Краснодарский край >> Солох Аул


ПОГОДА в Солох Ауле

  • Прогноз погоды в Солох Ауле
  • Монитор погоды в Солох Ауле

АРХИВ ПОГОДЫ в Солох Ауле

Время (UTC), дата Ветер
(напр.,м/с)
 
Видим.   Явления Облачность Т
(С)
Тd
(С)
f
(%)
Тe
(С)
Тes
(С)
Комфортность P
(гПа)
Po
(гПа)
Тmin
(С)
Tmax
(С)
R
(мм)
R24
(мм)
S
(см)
21 16.05 штиль 0 20 км н/о +19.0 +11.8 63 +20 +20 1010.2 959.9
00 17.05 штиль 0 20 км н/о +18.0 +9.9 59 +18 +18 1011.2 960.6
03 17.05 штиль 0 20 км н/о +17.9 +10.0 60 +18 +18 1011.2 960.6 +17.5
06 17.05 штиль 0 20 км н/о +19.5 +14.1 71 +21 +21 комфорт 1011.6 961.3 +17.0
09 17.05 С 2 20 км н/о +24.7 +15.9 58 +28 +28 душно 1010.1 960.8
12 17.05 штиль 0 20 км н/о +28.1 +16.7 50 +32 +32 душно 1008.1 959.5
15 17.05 штиль 0 20 км н/о +27.3 +16.0 50 +31 +31 душно 1006.8 957.9 +28.3
21 17.05 штиль 0 20 км н/о +19.1 +13.3 69 +20 +20 1008.2 958.0
03 18.05 штиль 0 20 км н/о +18.8 +10.6 59 +19 +19 1007.3 957.1 +18.4
06 18.05 штиль 0 20 км н/о +25.1 +14.3 51 +28 +28 жарко 1004.1 955.1 +18.3
09 18.05 ЮЗ 1 20 км н/о +27.5 +16.5 51 +31 +31 душно 1003.5 955.0
12 18.05 штиль 0 20 км н/о +28.5 +15.8 46 +32 +32 душно 1002.7 954.4
15 18.05 В 1 16 км н/о +27.2 +19.0 61 +32 +32 очень
душно
1000.6 952.2 +29.5
18 18.05 штиль 0 20 км н/о +20.8 +14.5 67 +23 +23 комфорт 1005.2 955.5
21 18.05 З 1 20 км н/о +20.6 +13.8 65 +24 +24 комфорт 1005.3 955.5
00 19.05 ЮЗ 1 20 км н/о +19.2 +15.5 79 +22 +22 комфорт 1005.8 955.8
03 19.05 штиль 0 20 км н/о +17.9 +17.9 100 +18 +18 1006.8 956.6 +17.9
06 19.05 СЗ 1 19 км н/о +18.4 +17.4 94 +20 +20 1008.4 958.2 +17.8
09 19.05 штиль 0 3200 м н/о +16.3 +16.3 100 +16 +16 1010.7 960.0
12 19.05 В 1 20 км н/о +18.0 +18.0 100 +19 +19 1011.4 961.0
15 19.05 Ю 1 6000 м н/о +16.0 +16.0 100 +17 +17 1011.5 960.7 +20.1 3
18 19.05 штиль 0 4300 м н/о +15.9 +15.9 100 +16 +16 1012.0 961.2
21 19.05 штиль 0 4300 м н/о +15.4 +15.4 100 +15 +15 1013.1 962.1
00 20.05 штиль 0 6000 м н/о +15.3 +15.3 100 +15 +15 1013.7 962.7
03 20.05 штиль 0 4200 м н/о +14.8 +14.8 100 +14 +14 1013.8 962.7 +14.8
06 20.05 штиль 0 19 км н/о +16.4 +16.4 100 +16 +16 1015.2 964.3 +14.7
09 20.05 штиль 0 8000 м н/о +16.9 +16.9 100 +17 +17 1015.4 964.6
12 20.05 штиль 0 18 км н/о +18.3 +18.1 99 +19 +19 1014.5 964.0
15 20.05 Ю 2 16 км н/о +17.9 +17.9 100 +18 +18 1014.6 964.0 +18.5
18 20.05 штиль 0 5000 м н/о +15.5 +15.5 100 +15 +15 1016.0 964.9
21 20.05 штиль 0 9000 м н/о +14.5 +14.5 100 +14 +14 1016.1 964.8
00 21.05 штиль 0 16 км н/о +13.5 +13.5 100 +13 +13 1016.0 964.5
03 21.05 штиль 0 18 км н/о +13.3 +13.3 100 +13 +13 1016.6 965.0 +13.3
06 21.05 штиль 0 20 км н/о +20.2 +13.9 67 +22 +22 комфорт 1016.0 965.6 +12.8
09 21.05 З 2 20 км н/о +21.6 +14.5 64 +25 +25 комфорт 1015.6 965.5
12 21.05 СЗ 2 20 км н/о +22.9 +14.7 60 +27 +27 душно 1015.1 965.2
15 21.05 штиль 0 20 км н/о +21.8 +15.4 67 +25 +25 комфорт 1014.8 964.8 +23.5
18 21.05 штиль 0 20 км н/о +18.0 +13.3 74 +18 +18 1014.1 963.5
00 22.05 штиль 0 20 км н/о +16.7 +13.2 80 +17 +17 1013.9 963.0
03 22.05 штиль 0 20 км н/о +17.0 +13.1 78 +17 +17 1013.3 962.5 +16.7
06 22.05 штиль 0 20 км н/о +16.9 +15.9 94 +17 +17 1014.9 964.1 +16.7
09 22.05 штиль 0 20 км н/о +20.0 +15.2 74 +22 +22 комфорт 1013.5 963.3
12 22.05 СЗ 2 20 км н/о +21.6 +13.8 61 +24 +24 комфорт 1014.3 964.3
15 22.05 штиль 0 20 км н/о +19.7 +15.1 75 +22 +22 комфорт 1014.4 964.1 +23.3 0.4
18 22.05 штиль 0 20 км н/о +16.8 +15.0 89 +17 +17 1015.4 964.5

 

Местоположение метеостанции Солох Аул (Краснодарский край, Россия): широта 43.80 долгота 39.63 высота над уровнем моря 442 м.

В архиве по умолчанию представлена погода в Солох Ауле за последнюю неделю. Архивные данные за месяц целиком и за предыдущие месяцы, начиная с января 2011 года, Вы можете получить, выбрав интересующий диапазон дат из раскрывающегося списка и нажав кнопку "Ввод!".


*Определитесь, кто Вы:
робот инопланетянин человек

Внимание! Время в таблицах - всемирное. Для получения местного времени необходимо прибавить поправку, которая равна 3 ч.

Смотрите также архив погоды в соседних городах и на ближайших метеорологических станциях:

Погода в Кичмае (Краснодарский край, Россия) (10 км)
Погода в Лазаревском (Краснодарский край, Россия) (27 км)
Погода в Сочи (Краснодарский край, Россия) (27 км)
Погода в Кепше (Краснодарский край, Россия) (39 км)
Погода в Магри (Краснодарский край, Россия) (45 км)
Погода в Гузерипле (Адыгея, Россия) (46 км)
Погода в Сочи аэропорт (Адлере) (Краснодарский край, Россия) (47 км)
Погода в Красной Поляне (Краснодарский край, Россия) (48 км)
Погода в Имеретинке (Краснодарский край, Россия) (51 км)
Погода на Кордоне Лаура (Краснодарский край, Россия) (55 км)

Пояснения к столбцам:

Ветер - указаны скорость ветра в м/с - средняя за 10 мин, порывы в срок и между сроками (в фигурных скобках) и направление, откуда дует ветер: С - северный, СВ - северо-восточный, В - восточный, ЮВ - юго-восточный, Ю - южный, ЮЗ - юго-западный, З - западный, СЗ - северо-западный.
Видимость - горизонтальная дальность видимости в метрах или километрах. При видимости от 1 до 10 км при отсутствии осадков обычно наблюдается дымка, при ухудшении видимости до 1 км и менее - туман. В сухую погоду видимость может ухудшаться дымом, пылью или мглою.
Явления - указаны атмосферные явления, наблюдавшиеся в срок или в последний час перед сроком; фигурными скобками обозначены явления, наблюдавшиеся между сроками (за 1-3 часа до срока); квадратными скобками обозначены град или гололедные отложения с указанием их диаметра в мм.
Облачность - указаны через наклонную черту общая и нижняя облачность в баллах и высота нижней границы облаков в метрах; квадратными скобками обозначены формы облаков: Ci - перистые, Cs - перисто-слоистые, Cc - перисто-кучевые, Ac - высококучевые, As - высокослоистые, Sc - слоисто-кучевые, Ns - слоисто-дождевые, Cu - кучевые, Cb - кучево-дождевые. Подробнее классификацию облаков см. в Атласе облаков (PDF).
T - Температура воздуха - температура, измеренная на высоте 2 м над землей.
Td - Температура точки росы - температура, при понижении до которой содержащийся в воздухе водяной пар достигнет насыщения.
f - Относительная влажность воздуха - влажноcть воздуха, измеренная на высоте 2 м над землей.
Te - Эффективная температура - температура, которую ощущает одетый по сезону человек в тени. Характеристика душности погоды. При расчете учитывается влияние влажности воздуха и скорости ветра на теплоощущения человека.
Tes - Эффективная температура на солнце - температура, которую ощущает человек, с поправкой на солнечный нагрев. Характеристика знойности погоды. Зависит от высоты солнца над горизонтом, облачности и скорости ветра. Ночью, в пасмурную погоду, а также при ветре 12 м/с и более поправка равна нулю.
P - Атмосферное давление - приведенное к уровню моря атмосферное давление.
Po - Атмосферное давление - измеренное на уровне метеостанции атмосферное давление.
Tmin - Минимальная температура - минимум температуры воздуха на высоте 2 м над землей.
Tmax - Максимальная температура - максимум температуры воздуха на высоте 2 м над землей.
R - Количество осадков - Количество выпавших осадков за период времени, мм. При наведении курсора мыши на число - период времени, за который выпало указанное количество осадков.
R24 - Количество осадков - Количество выпавших осадков за 24 часа, мм.
S - Снежный покров - Высота снежного покрова, см. При наведении курсора мыши на число - состояние снежного покрова и степень покрытия местности в баллах.